When you browse on this site, cookies collect data to enhance your experience and personalize the content and advertising you see.
Visit our Privacy Policy to learn more. By continuing to use the site, you agree to this use of cookies and data.
  • în România
  • Lista ţărilor
  • Pe 7 zile
  • Temperatura apei
  • Hartă satelitară
  • Meteo pe hartă
  • Widget-uri
  • user-avatar
    Intrare

    Meteo pe oră la Sucre

    Astăzi, 26 Martie, Marţi

    Timp Temperatura Precipitaţii Vânt Presiune Umiditate
    00:00 +13°C° 0 mm 2 m/s 542 mmHg 79%
    01:00 +13°C° 0 mm 2 m/s 542 mmHg 82%
    02:00 +12°C° 0 mm 1 m/s 542 mmHg 85%
    03:00 +12°C° 0.1 mm 1 m/s 541 mmHg 86%
    04:00 +12°C° 0.1 mm 1 m/s 541 mmHg 86%
    05:00 +12°C° 0.1 mm 1 m/s 541 mmHg 86%
    06:00 +12°C° 0.1 mm 1 m/s 542 mmHg 86%
    07:00 +12°C° 0.1 mm 1 m/s 542 mmHg 85%
    08:00 +12°C° 0.1 mm 2 m/s 542 mmHg 85%
    09:00 +13°C° 0.2 mm 2 m/s 543 mmHg 80%
    10:00 +14°C° 0.2 mm 2 m/s 543 mmHg 76%
    11:00 +15°C° 0.2 mm 2 m/s 544 mmHg 71%
    12:00 +16°C° 0.2 mm 3 m/s 543 mmHg 67%
    13:00 +17°C° 0.2 mm 3 m/s 543 mmHg 62%
    14:00 +18°C° 0.2 mm 4 m/s 543 mmHg 57%
    15:00 +18°C° 0.3 mm 3 m/s 543 mmHg 60%
    16:00 +17°C° 0.3 mm 3 m/s 542 mmHg 62%
    17:00 +17°C° 0.3 mm 3 m/s 542 mmHg 64%
    18:00 +16°C° 0.6 mm 3 m/s 542 mmHg 70%
    19:00 +15°C° 0.6 mm 2 m/s 542 mmHg 75%
    20:00 +14°C° 0.6 mm 2 m/s 542 mmHg 81%
    21:00 +13°C° 0.4 mm 2 m/s 542 mmHg 82%
    22:00 +13°C° 0.4 mm 2 m/s 543 mmHg 82%
    23:00 +13°C° 0.4 mm 2 m/s 543 mmHg 83%

    Mâine, 27 Martie, Miercuri

    Timp Temperatura Precipitaţii Vânt Presiune Umiditate
    00:00 +13°C° 0.7 mm 2 m/s 543 mmHg 84%
    01:00 +13°C° 0.7 mm 2 m/s 543 mmHg 86%
    02:00 +12°C° 0.7 mm 2 m/s 543 mmHg 87%
    03:00 +12°C° 0.9 mm 2 m/s 543 mmHg 88%
    04:00 +12°C° 0.9 mm 2 m/s 542 mmHg 88%
    05:00 +12°C° 0.9 mm 2 m/s 542 mmHg 89%
    06:00 +12°C° 0.2 mm 2 m/s 543 mmHg 89%
    07:00 +12°C° 0.2 mm 2 m/s 543 mmHg 89%
    08:00 +12°C° 0.2 mm 2 m/s 543 mmHg 89%
    09:00 +12°C° 0.2 mm 2 m/s 544 mmHg 86%
    10:00 +13°C° 0.2 mm 2 m/s 544 mmHg 82%
    11:00 +13°C° 0.2 mm 2 m/s 545 mmHg 79%
    12:00 +13°C° 0.3 mm 2 m/s 544 mmHg 79%
    13:00 +14°C° 0.3 mm 2 m/s 544 mmHg 79%
    14:00 +14°C° 0.3 mm 2 m/s 543 mmHg 79%
    15:00 +14°C° 0.2 mm 2 m/s 543 mmHg 77%
    16:00 +14°C° 0.2 mm 2 m/s 543 mmHg 76%
    17:00 +14°C° 0.2 mm 2 m/s 542 mmHg 75%
    18:00 +13°C° 0 mm 2 m/s 543 mmHg 78%
    19:00 +13°C° 0 mm 1 m/s 543 mmHg 82%
    20:00 +12°C° 0 mm 1 m/s 543 mmHg 86%
    21:00 +12°C° 0 mm 1 m/s 543 mmHg 87%
    22:00 +11°C° 0 mm 1 m/s 543 mmHg 89%
    23:00 +11°C° 0 mm 1 m/s 543 mmHg 91%

    Poimâine, 28 Martie, Joi

    Timp Temperatura Precipitaţii Vânt Presiune Umiditate
    00:00 +11°C° 0 mm 1 m/s 543 mmHg 92%
    01:00 +11°C° 0 mm 1 m/s 543 mmHg 92%
    02:00 +11°C° 0 mm 1 m/s 542 mmHg 93%
    03:00 +11°C° 0 mm 1 m/s 542 mmHg 92%
    04:00 +11°C° 0 mm 1 m/s 542 mmHg 91%
    05:00 +11°C° 0 mm 1 m/s 542 mmHg 91%
    06:00 +11°C° 0 mm 1 m/s 543 mmHg 89%
    07:00 +11°C° 0 mm 1 m/s 543 mmHg 87%
    08:00 +12°C° 0 mm 1 m/s 544 mmHg 85%
    09:00 +13°C° 0 mm 1 m/s 544 mmHg 78%
    10:00 +15°C° 0 mm 2 m/s 545 mmHg 71%
    11:00 +16°C° 0 mm 2 m/s 546 mmHg 65%
    12:00 +17°C° 0 mm 3 m/s 546 mmHg 62%
    13:00 +18°C° 0 mm 3 m/s 545 mmHg 59%
    14:00 +18°C° 0 mm 3 m/s 545 mmHg 56%
    15:00 +18°C° 0.1 mm 3 m/s 545 mmHg 58%
    16:00 +18°C° 0.1 mm 3 m/s 544 mmHg 59%
    17:00 +17°C° 0.1 mm 3 m/s 544 mmHg 61%
    18:00 +16°C° 0.1 mm 3 m/s 544 mmHg 65%
    19:00 +16°C° 0.1 mm 2 m/s 544 mmHg 69%
    20:00 +15°C° 0.1 mm 2 m/s 544 mmHg 73%
    21:00 +14°C° 0.1 mm 2 m/s 544 mmHg 75%
    22:00 +14°C° 0.1 mm 2 m/s 544 mmHg 77%
    23:00 +13°C° 0.1 mm 2 m/s 545 mmHg 79%

    29 Martie, Vineri

    Timp Temperatura Precipitaţii Vânt Presiune Umiditate
    00:00 +13°C° 0 mm 1 m/s 544 mmHg 83%
    01:00 +12°C° 0 mm 1 m/s 543 mmHg 87%
    02:00 +10°C° 0 mm 0 m/s 543 mmHg 90%
    03:00 +11°C° 0 mm 1 m/s 542 mmHg 90%
    04:00 +11°C° 0 mm 1 m/s 542 mmHg 91%
    05:00 +11°C° 0 mm 1 m/s 542 mmHg 91%
    06:00 +12°C° 0 mm 1 m/s 543 mmHg 87%
    07:00 +12°C° 0 mm 1 m/s 543 mmHg 83%
    08:00 +13°C° 0 mm 1 m/s 544 mmHg 79%
    09:00 +14°C° 0 mm 1 m/s 544 mmHg 72%
    10:00 +15°C° 0 mm 2 m/s 545 mmHg 64%
    11:00 +17°C° 0 mm 2 m/s 545 mmHg 57%
    12:00 +18°C° 0 mm 3 m/s 545 mmHg 52%
    13:00 +19°C° 0 mm 3 m/s 544 mmHg 47%
    14:00 +20°C° 0 mm 4 m/s 544 mmHg 43%
    15:00 +20°C° 0 mm 4 m/s 543 mmHg 44%
    16:00 +19°C° 0 mm 3 m/s 543 mmHg 46%
    17:00 +19°C° 0 mm 3 m/s 542 mmHg 48%
    18:00 +18°C° 0 mm 3 m/s 542 mmHg 52%
    19:00 +16°C° 0 mm 2 m/s 542 mmHg 57%
    20:00 +15°C° 0 mm 1 m/s 542 mmHg 61%
    21:00 +15°C° 0 mm 1 m/s 542 mmHg 63%
    22:00 +14°C° 0 mm 1 m/s 542 mmHg 65%
    23:00 +14°C° 0 mm 1 m/s 542 mmHg 67%

    30 Martie, Sâmbătă

    Timp Temperatura Precipitaţii Vânt Presiune Umiditate
    00:00 +13°C° 0 mm 1 m/s 541 mmHg 69%
    01:00 +13°C° 0 mm 1 m/s 541 mmHg 71%
    02:00 +12°C° 0 mm 1 m/s 540 mmHg 74%
    03:00 +12°C° 0 mm 1 m/s 540 mmHg 76%
    04:00 +12°C° 0 mm 1 m/s 540 mmHg 78%
    05:00 +12°C° 0 mm 1 m/s 539 mmHg 80%
    06:00 +13°C° 0 mm 1 m/s 540 mmHg 77%
    07:00 +14°C° 0 mm 1 m/s 541 mmHg 73%
    08:00 +15°C° 0 mm 1 m/s 542 mmHg 70%
    09:00 +17°C° 0 mm 2 m/s 542 mmHg 63%
    10:00 +18°C° 0 mm 2 m/s 543 mmHg 56%
    11:00 +20°C° 0 mm 3 m/s 544 mmHg 49%
    12:00 +21°C° 0.3 mm 3 m/s 543 mmHg 46%
    13:00 +22°C° 0.3 mm 3 m/s 543 mmHg 44%
    14:00 +23°C° 0.3 mm 4 m/s 542 mmHg 42%
    15:00 +24°C° 0.1 mm 3 m/s 542 mmHg 42%
    16:00 +22°C° 0.1 mm 3 m/s 542 mmHg 43%
    17:00 +22°C° 0.1 mm 3 m/s 541 mmHg 44%
    18:00 +21°C° 0.1 mm 3 m/s 541 mmHg 50%
    19:00 +19°C° 0.1 mm 2 m/s 541 mmHg 56%
    20:00 +19°C° 0.1 mm 1 m/s 541 mmHg 62%
    21:00 +18°C° 0.1 mm 1 m/s 541 mmHg 65%
    22:00 +18°C° 0.1 mm 1 m/s 541 mmHg 68%
    23:00 +16°C° 0.1 mm 1 m/s 542 mmHg 71%

    31 Martie, Duminică

    Timp Temperatura Precipitaţii Vânt Presiune Umiditate
    00:00 +16°C° 0.2 mm 1 m/s 541 mmHg 73%
    01:00 +15°C° 0.2 mm 1 m/s 541 mmHg 76%
    02:00 +15°C° 0.2 mm 1 m/s 541 mmHg 78%
    03:00 +15°C° 0.2 mm 1 m/s 541 mmHg 81%
    04:00 +14°C° 0.2 mm 1 m/s 540 mmHg 84%
    05:00 +14°C° 0.2 mm 1 m/s 540 mmHg 87%
    06:00 +14°C° 0.4 mm 1 m/s 541 mmHg 85%
    07:00 +15°C° 0.4 mm 1 m/s 542 mmHg 82%
    08:00 +15°C° 0.4 mm 1 m/s 543 mmHg 80%
    09:00 +16°C° 0.8 mm 2 m/s 543 mmHg 75%
    10:00 +17°C° 0.8 mm 2 m/s 543 mmHg 71%
    11:00 +18°C° 0.8 mm 2 m/s 543 mmHg 67%
    12:00 +18°C° 0.5 mm 2 m/s 543 mmHg 65%
    13:00 +19°C° 0.5 mm 3 m/s 542 mmHg 63%
    14:00 +19°C° 0.5 mm 3 m/s 542 mmHg 61%
    15:00 +19°C° 0.2 mm 3 m/s 542 mmHg 61%
    16:00 +19°C° 0.2 mm 3 m/s 541 mmHg 61%
    17:00 +19°C° 0.2 mm 3 m/s 541 mmHg 62%
    18:00 +18°C° 0.3 mm 2 m/s 541 mmHg 67%
    19:00 +17°C° 0.3 mm 2 m/s 541 mmHg 72%
    20:00 +16°C° 0.3 mm 1 m/s 541 mmHg 77%
    21:00 +15°C° 1.2 mm 1 m/s 541 mmHg 80%
    22:00 +15°C° 1.2 mm 1 m/s 541 mmHg 83%
    23:00 +14°C° 1.2 mm 1 m/s 541 mmHg 85%
    Arată mai mult